This demonstration page uses our WeatherBlox Daily Observations layout. Learn more.

Left ArrowRight Arrow

34.74481, -87.66753

Hourly Observations for August 31, 2015

Temp ( °F °C ) Dew Point ( °F °C ) Humidity (%) Winds ( mph kmh ) Pressure ( in mb ) Visibility ( mi km ) Precip ( " mm )
12:53 am 00:53 Clear 67 19.4 64 17.8 91 91 Calm 30.07 1018 9 14 0.00 0.00
1:53 am 01:53 Clear with Mist and Fog 66 18.9 64 17.8 93 93 Calm 30.06 1018 5 8 0.00 0.00
2:53 am 02:53 Clear 66 18.9 64 17.8 93 93 Calm 30.06 1018 7 11 0.00 0.00
3:43 am 03:43 Clear with Mist and Fog 65 18.3 63 17.2 93 93 Calm 30.03 1017 2 3 0.00 0.00
3:51 am 03:51 Clear with Mist and Fog 66 19 63 17 88 88 Calm 30.03 1017 3 5 0.00 0.00
3:53 am 03:53 Clear with Mist and Fog 66 18.9 63 17.2 90 90 Calm 30.05 1018 4 6 0.00 0.00
4:05 am 04:05 Clear with Mist and Fog 64 17.8 61 16.1 90 90 Calm 30.03 1017 2 3 0.00 0.00
4:23 am 04:23 Clear with Fog 64 17.8 63 17.2 96 96 Calm 30.06 1018 1 1 0.00 0.00
4:38 am 04:38 Clear with Mist and Fog 64 17.8 62 16.7 93 93 Calm 30.06 1018 1 2 0.00 0.00
4:49 am 04:49 Clear with Mist and Fog 64 18 63 17 94 94 Calm 30.06 1018 1 1 0.00 0.00
4:53 am 04:53 Clear with Mist and Fog 64 17.8 62 16.7 93 93 E 3 6 30.06 1018 2 2 0.00 0.00
4:56 am 04:56 Clear with Mist and Fog 64 17.8 62 16.7 93 93 E 3 6 30.06 1018 3 5 0.00 0.00
5:43 am 05:43 Clear with Mist and Fog 64 17.8 62 16.7 93 93 Calm 30.06 1018 2 3 0.00 0.00
5:53 am 05:53 Clear 65 18.3 62 16.7 90 90 Calm 30.08 1019 8 13 0.00 0.00
6:20 am 06:20 Clear with Mist and Fog 64 17.8 62 16.7 93 93 Calm 30.06 1018 2 3 0.00 0.00
6:31 am 06:31 Mostly Cloudy with Fog 64 17.8 62 16.7 93 93 Calm 30.06 1018 1 1 0.00 0.00
6:43 am 06:43 Partly Cloudy with Mist and Fog 64 17.8 62 16.7 93 93 Calm 30.09 1019 1 2 0.00 0.00
6:53 am 06:53 Partly Cloudy with Mist and Fog 65 18.3 62 16.7 90 90 Calm 30.10 1019 2 3 0.00 0.00
7:02 am 07:02 Partly Cloudy with Mist and Fog 65 18.3 63 17.2 93 93 Calm 30.09 1019 5 8 0.00 0.00
7:19 am 07:19 Mostly Cloudy with Mist and Fog 66 18.9 64 17.8 93 93 Calm 30.09 1019 3 5 0.00 0.00
7:53 am 07:53 Cloudy with Mist and Fog 68 20 65 18.3 90 90 ESE 3 6 30.11 1020 6 10 0.00 0.00
8:53 am 08:53 Cloudy 71 21.7 66 18.9 84 84 E 3 6 30.13 1020 9 14 0.00 0.00
9:53 am 09:53 Cloudy 73 22.8 66 18.9 79 79 Calm 30.14 1021 9 14 0.00 0.00
10:53 am 10:53 Cloudy 75 23.9 67 19.4 76 76 Calm 30.14 1021 9 14 0.00 0.00
11:53 am 11:53 Mostly Cloudy 76 24.4 67 19.4 74 74 Calm 30.14 1021 10 16 0.00 0.00
12:53 pm 12:53 Cloudy 78 25.6 67 19.4 69 69 VRB 3 6 30.13 1020 10 16 0.00 0.00
1:53 pm 13:53 Mostly Cloudy 80 26.7 67 19.4 64 64 Calm 30.11 1020 10 16 0.00 0.00
2:53 pm 14:53 Mostly Sunny 84 28.9 67 19.4 57 57 ESE 3 6 30.09 1019 10 16 0.00 0.00
3:53 pm 15:53 Sunny 84 28.9 66 18.9 55 55 E 3 6 30.07 1018 10 16 0.00 0.00
4:53 pm 16:53 Sunny 84 28.9 66 18.9 55 55 Calm 30.06 1018 10 16 0.00 0.00
5:53 pm 17:53 Sunny 84 28.9 66 18.9 55 55 Calm 30.06 1018 10 16 0.00 0.00
6:53 pm 18:53 Sunny 80 26.7 67 19.4 64 64 Calm 30.06 1018 10 16 0.00 0.00
7:53 pm 19:53 Clear 73 22.8 68 20 84 84 Calm 30.06 1018 10 16 0.00 0.00
8:53 pm 20:53 Clear 72 22.2 67 19.4 84 84 Calm 30.08 1019 10 16 0.00 0.00
9:53 pm 21:53 Clear 70 21.1 67 19.4 90 90 Calm 30.09 1019 10 16 0.00 0.00
10:53 pm 22:53 Clear 70 21.1 67 19.4 90 90 Calm 30.09 1019 9 14 0.00 0.00
11:53 pm 23:53 Clear 68 20 65 18.3 90 90 Calm 30.09 1019 8 13 0.00 0.00

Powered by AerisWeather